This demonstration page uses our WeatherBlox Daily Observations layout. Learn more.

Left ArrowRight Arrow

Hourly Observations for May 23, 2022

Temp ( °F °C ) Dew Point ( °F °C ) Humidity (%) Winds ( mph kmh ) Pressure ( in mb ) Visibility ( mi km ) Precip ( " mm )
12:53 am 00:53 Cloudy with Light Rain 70 21.1 68 20 93 93 E 14 22 30.06 1018 7 11 0.03 0.76
1:53 am 01:53 Mostly Cloudy 72 22.2 70 21.1 94 94 SE 12 19 30.04 1017 10 16 0.00 0.00
2:09 am 02:09 Mostly Cloudy 71 21.7 70 21.1 96 96 ESE 12 19 30.04 1017 10 16 0.00 0.00
2:39 am 02:39 Cloudy with Nearby Thunderstorms 73 22.8 72 22.2 96 96 SE 16 26 30.03 1017 10 16 0.05 1.27
2:50 am 02:50 Cloudy with Nearby Thunderstorms 73 23 72 22 94 94 SE 15 24 30.03 1017 10 16 0.05 1.27
2:53 am 02:53 Cloudy 73 22.8 72 22.2 96 96 SE 16 26 30.02 1017 10 16 0.05 1.27
3:03 am 03:03 Cloudy with Light Rain 73 22.8 72 22.2 96 96 SE 12 19 30.03 1017 9 14 0.00 0.00
3:12 am 03:12 Cloudy with Heavy Rain 73 22.8 72 22.2 96 96 S 7 11 30.04 1017 2 2 0.21 5.33
3:24 am 03:24 Cloudy with Rain 73 22.8 72 22.2 96 96 S 10 17 30.04 1017 3 5 0.26 6.60
3:32 am 03:32 Cloudy with Nearby Thunderstorms 73 22.8 73 22.8 100 100 S 12 19 30.05 1018 6 10 0.26 6.60
3:43 am 03:43 Cloudy 73 22.8 73 22.8 100 100 S 14 22 30.06 1018 10 16 0.26 6.60
3:53 am 03:53 Cloudy 73 22.8 72 22.2 96 96 S 13 20 30.05 1018 10 16 0.26 6.60
4:53 am 04:53 Mostly Cloudy 73 22.8 72 22.2 96 96 S 9 15 30.04 1017 10 16 0.00 0.00
5:43 am 05:43 Cloudy 74 23.3 73 22.8 97 97 S 9 15 30.06 1018 9 14 0.00 0.00
5:53 am 05:53 Cloudy 74 23.3 73 22.8 97 97 S 9 15 30.05 1018 9 14 0.00 0.00
6:40 am 06:40 Cloudy 75 23.9 74 23.3 96 96 S 8 13 30.08 1019 8 13 0.00 0.00
6:49 am 06:49 Cloudy 75 24 73 23 94 94 SSW 12 19 30.08 1019 7 11 0.00 0.00
6:53 am 06:53 Cloudy 75 23.9 74 23.3 96 96 SW 12 19 30.08 1019 8 13 0.00 0.00
7:02 am 07:02 Cloudy 75 23.9 73 22.8 94 94 SW 12 19 30.08 1019 9 14 0.00 0.00
7:16 am 07:16 Mostly Cloudy 76 24.4 73 22.8 91 91 SW 9 15 30.09 1019 10 16 0.00 0.00
7:53 am 07:53 Mostly Cloudy 76 24.4 73 22.8 91 91 SW 8 13 30.09 1019 10 16 0.00 0.00
8:09 am 08:09 Cloudy 76 24.4 73 22.8 91 91 SW 8 13 30.11 1020 10 16 0.00 0.00
9:53 am 09:53 Mostly Cloudy 78 25.6 72 22.2 82 82 WSW 8 13 30.10 1019 10 16 0.00 0.00
10:30 am 10:30 Mostly Cloudy 80 26.7 73 22.8 79 79 WSW 12 19 30.10 1019 10 16 0.00 0.00
10:53 am 10:53 Mostly Cloudy 80 26.7 73 22.8 79 79 SW 9 15 30.10 1019 10 16 0.00 0.00
11:00 am 11:00 Mostly Cloudy 80 26.7 72 22.2 76 76 SW 10 17 30.10 1019 10 16 0.00 0.00
11:53 am 11:53 Sunny 81 27.2 71 21.7 72 72 SSW 13 20 30.10 1019 10 16 0.00 0.00
12:53 pm 12:53 Mostly Cloudy 81 27.2 71 21.7 72 72 SSW 12 19 30.10 1019 10 16 0.00 0.00
1:53 pm 13:53 Partly Cloudy 82 27.8 72 22.2 72 72 W 10 17 30.08 1019 10 16 0.00 0.00
2:53 pm 14:53 Partly Cloudy with Light Rain 75 23.9 69 20.6 82 82 WSW 25 41 30.10 1019 3 5 0.03 0.76
2:55 pm 14:55 Mostly Cloudy with Heavy Rain 73 22.8 69 20.6 87 87 WSW 24 39 30.11 1020 2 3 0.03 0.76
3:07 pm 15:07 Mostly Cloudy with Light Rain 72 22.2 69 20.6 91 91 W 13 20 30.10 1019 4 6 0.08 2.03
3:18 pm 15:18 Cloudy with Light Rain 72 22.2 70 21.1 94 94 W 10 17 30.10 1019 10 16 0.08 2.03
3:53 pm 15:53 Mostly Sunny 73 22.8 69 20.6 87 87 Calm 30.06 1018 10 16 0.08 2.03
4:53 pm 16:53 Cloudy 74 23.3 69 20.6 85 85 SSE 3 6 30.03 1017 10 16 0.00 0.00
5:53 pm 17:53 Partly Cloudy 75 23.9 67 19.4 76 76 Calm 30.03 1017 10 16 0.00 0.00
6:53 pm 18:53 Mostly Cloudy 73 22.8 70 21.1 90 90 ESE 7 11 30.06 1018 10 16 0.00 0.00
7:53 pm 19:53 Clear 72 22.2 69 20.6 91 91 Calm 30.07 1018 10 16 0.00 0.00
8:53 pm 20:53 Clear 71 21.7 69 20.6 94 94 SE 5 7 30.10 1019 10 16 0.00 0.00
9:53 pm 21:53 Clear 71 21.7 68 20 90 90 SE 6 9 30.10 1019 10 16 0.00 0.00
10:53 pm 22:53 Clear 70 21.1 68 20 93 93 ESE 5 7 30.08 1019 10 16 0.00 0.00
11:53 pm 23:53 Clear 70 21.1 69 20.6 97 97 ESE 5 7 30.07 1018 10 16 0.00 0.00

Powered by AerisWeather